Content
SEND FEEDBACK

Daily
Averages
Monthly
Summary
United States of America

CARIBOU CITY, COLORADO


Home > North America > United States > Colorado
Elevation: 8370 feet     Latitude: 40 00N     Longitude: 105 31W

WEATHER
 
SELECT A DAY
Number of Records: 84,622;   Date Range: 3/4/10 - 7/19/14
 
SHARE

PRINT THIS DATA

[ ← Previous Day ]
WEATHER ALMANAC - OCTOBER 25, 2013
[ Next Day → ]
[ °C ]   °F
Weather ElementAverageHighLow
Temperature47.3 °F69.1 °F (3:14 pm)29.8 °F (7:34 am)
Dewpoint33.6 °F40.1 °F (10:34 am)27.7 °F (4:34 pm)
Humidity67.5 %100 % (4:34 am)22 % (4:34 pm)
Barometer30.18 in30.26 in (11:34 pm)30.11 in (1:54 pm)
Wind Speed0.8 mph4.6 mph (1:34 pm)
Weather ElementAverage
Visibility7.7 mi
Wind DirectionNNE (32 °)

Weather ElementTotal
Precipitation---
Heating Degree Days15.6 (Base 65)
Averaged from 71 records on October 25, 2013
WEATHER CONDITIONS BREAKOUT
WIND DIRECTION BREAKOUT
WEATHER BY HOUR - OCTOBER 25, 2013
[ °C ]   °F
Local TimeTemperatureDewpointHumidityBarometerVisibilityWind DirectionWind SpeedGust SpeedPrecipitationEventsConditions
12:34 AM35.4 °F34.9 °F98 %30.23 in4.0 miCalmClear
12:54 AM34.9 °F34.3 °F98 %30.23 in5.0 miCalmClear
1:14 AM34.7 °F34.2 °F98 %30.23 in5.0 miCalmClear
1:34 AM34.0 °F33.3 °F97 %30.23 in4.0 miCalmClear
1:54 AM33.4 °F32.7 °F97 %30.23 in4.0 miCalmClear
2:14 AM34.3 °F33.8 °F98 %30.22 in5.0 miCalmClear
2:34 AM33.8 °F33.3 °F98 %30.22 in4.0 miCalmClear
2:54 AM32.7 °F32.2 °F98 %30.22 in4.0 miCalmClear
3:14 AM32.9 °F32.5 °F99 %30.22 in4.0 miCalmClear
3:34 AM32.5 °F32.0 °F98 %30.22 in4.0 miCalmClear
3:54 AM32.4 °F32.0 °F99 %30.22 in4.0 miSSW (200°)3.5 mphClear
4:14 AM32.2 °F32.0 °F99 %30.22 in4.0 miCalmClear
4:34 AM32.0 °F32.0 °F100 %30.22 in5.0 miCalmClear
4:54 AM31.8 °F31.3 °F98 %30.21 in4.0 miCalmClear
5:14 AM31.6 °F31.5 °F99 %30.22 in4.0 miCalmClear
5:34 AM32.0 °F31.6 °F99 %30.22 in5.0 miCalmClear
5:54 AM31.8 °F31.5 °F99 %30.21 in5.0 miCalmClear
6:14 AM31.8 °F31.5 °F99 %30.21 in5.0 miCalmClear
6:34 AM30.7 °F30.0 °F97 %30.20 in4.0 miCalmClear
6:54 AM30.6 °F30.2 °F99 %30.20 in4.0 miCalmClear
7:14 AM30.2 °F30.0 °F99 %30.20 in7.0 miCalmClear
7:34 AM29.8 °F29.3 °F98 %30.20 in3.0 miCalmClear
7:54 AM30.6 °F30.2 °F99 %30.20 in4.0 miCalmClear
8:14 AM32.0 °F32.0 °F100 %30.20 in4.0 miCalmClear
8:34 AM34.5 °F33.8 °F97 %30.20 in4.0 miCalmClear
8:54 AM37.4 °F36.0 °F95 %30.20 in5.0 miCalmClear
9:14 AM40.6 °F38.1 °F91 %30.20 in4.0 miCalmClear
9:34 AM44.8 °F39.2 °F81 %30.20 in5.0 miCalmHaze
9:54 AM47.8 °F39.4 °F72 %30.19 in7.0 miCalmClear
10:14 AM51.1 °F39.7 °F65 %30.19 in7.0 miCalmClear
10:34 AM54.0 °F40.1 °F59 %30.18 in7.0 miCalmClear
10:54 AM56.5 °F35.8 °F46 %30.17 in10.0 miCalmClear
11:14 AM59.0 °F35.4 °F41 %30.17 in10.0 miCalmClear
11:34 AM60.3 °F34.5 °F38 %30.17 in10.0 miCalmClear
11:54 AM61.9 °F33.4 °F34 %30.16 in10.0 miCalmClear
12:14 PM63.0 °F33.6 °F33 %30.15 in10.0 miCalmClear
12:34 PM64.8 °F36.9 °F36 %30.15 in10.0 miNNE (20°)3.5 mphClear
12:54 PM65.1 °F34.3 °F32 %30.14 in10.0 miCalmClear
1:14 PM65.7 °F32.9 °F30 %30.13 in10.0 miSSE (160°)3.5 mphClear
1:34 PM67.1 °F28.6 °F24 %30.13 in10.0 miENE (70°)4.6 mphClear
1:54 PM67.8 °F30.9 °F25 %30.11 in10.0 miESE (120°)3.5 mphClear
2:14 PM67.3 °F29.8 °F25 %30.11 in10.0 miCalmClear
2:34 PM67.6 °F31.8 °F26 %30.11 in10.0 miENE (60°)4.6 mphClear
2:54 PM68.0 °F28.8 °F23 %30.11 in10.0 miCalmClear
3:14 PM69.1 °F31.6 °F25 %30.11 in10.0 miESE (110°)3.5 mphClear
3:34 PM68.7 °F31.1 °F25 %30.11 in10.0 miCalmClear
3:54 PM68.2 °F30.4 °F24 %30.11 in10.0 miCalmClear
4:14 PM68.9 °F29.1 °F23 %30.11 in10.0 miCalmClear
4:34 PM67.8 °F27.7 °F22 %30.11 in10.0 miCalmClear
4:54 PM67.1 °F30.4 °F25 %30.11 in10.0 miSW (230°)3.5 mphClear
5:14 PM65.7 °F30.6 °F27 %30.11 in10.0 miWSW (240°)3.5 mphClear
5:34 PM62.4 °F30.4 °F30 %30.12 in10.0 miCalmClear
5:54 PM56.5 °F34.3 °F43 %30.13 in10.0 miWest (270°)4.6 mphClear
6:14 PM55.6 °F33.4 °F43 %30.13 in10.0 miCalmScattered Clouds
6:34 PM54.0 °F35.2 °F49 %30.14 in10.0 miSSW (200°)4.6 mphScattered Clouds
6:54 PM50.5 °F36.5 °F59 %30.15 in10.0 miCalmClear
7:14 PM51.3 °F36.0 °F56 %30.15 in10.0 miSSE (150°)4.6 mphClear
7:34 PM50.7 °F36.3 °F58 %30.16 in10.0 miCalmClear
7:54 PM51.4 °F36.0 °F56 %30.17 in10.0 miCalmClear
8:14 PM52.0 °F35.8 °F54 %30.18 in10.0 miCalmClear
8:34 PM51.3 °F36.0 °F56 %30.19 in10.0 miCalmClear
8:54 PM48.2 °F36.3 °F63 %30.20 in10.0 miCalmClear
9:14 PM46.2 °F36.5 °F69 %30.21 in10.0 miCalmClear
9:34 PM44.4 °F37.0 °F75 %30.22 in10.0 miCalmClear
9:54 PM42.6 °F36.9 °F80 %30.23 in10.0 miCalmClear
10:14 PM41.9 °F36.7 °F82 %30.24 in10.0 miCalmClear
10:34 PM41.4 °F36.5 °F83 %30.25 in10.0 miCalmClear
10:54 PM40.1 °F35.4 °F83 %30.25 in10.0 miSW (220°)3.5 mphClear
11:14 PM40.1 °F35.8 °F85 %30.25 in10.0 miSW (220°)3.5 mphClear
11:34 PM40.8 °F35.6 °F82 %30.26 in10.0 miCalmClear
11:54 PM40.1 °F34.5 °F80 %30.26 in10.0 miCalmClear
Hourly data recorded from KEIK, located miles away from Caribou City, Colorado







STORIES FROM OUR PARTNERS